Flag for Germany Weather past 2 weeks in Alfeld (Leine), Lower Saxony, Germany

Now
61 °F

Clear.


Feels Like: 61 °F
Forecast: 56 / 69 °F
Wind: 7 mph from Southwest

Location: Braunschweig

Current Time: Aug 29, 2014 at 10:10:05 PM

Latest Report: Aug 29, 2014 at 9:20 PM


Visibility: 10 mi

Pressure: 29.98 "Hg

Humidity: 88%

Dew point: 57 °F

Location of Alfeld (Leine)Location

Historic Weather in Alfeld (Leine) — Graph

°F

Alfeld (Leine) temperature yesterday

Maximum temperature yesterday: 75 °F (at 3:20 PM)
Minimum temperature yesterday: 45 °F (at 6:50 AM)
Average temperature yesterday: 67 °F

Past Weeks' High & Low Weather Summary

 TemperatureHumidityPressure
High75 °F (Aug 28, 3:20 PM)100% (Aug 14, 8:50 PM)30.07 "Hg (Aug 14, 8:50 PM)
Low45 °F (Aug 28, 6:50 AM)35% (Aug 27, 4:20 PM)29.59 "Hg (Aug 18, 1:50 PM)
Average61 °F71%29.89 "Hg
* Reported Aug 14 8:20 PM — Aug 29 8:50 PM, Alfeld (Leine), Weather by CustomWeather, © 2014

Note: Actual official high and low records may vary slightly from our data, if they occured in-between our weather recording intervals... More about our weather records

Advertising

Alfeld (Leine) weather history for previous 24 hours

 ConditionsComfort  
Time TempWeatherWind HumidityBarometerVisibility
8:50 PM
Aug 29
63 °FSunny.6 mph83%29.98 "Hg10 mi
8:20 PM64 °FSunny.7 mph78%29.95 "Hg10 mi
7:50 PM64 °FSunny.9 mph83%29.95 "Hg10 mi
7:20 PM66 °FPassing clouds.10 mph73%29.95 "HgN/A
6:50 PM68 °FSunny.12 mph73%29.95 "Hg10 mi
6:20 PM68 °FSunny.14 mph73%29.95 "Hg10 mi
5:50 PM70 °FPartly sunny.10 mph64%29.95 "HgN/A
5:20 PM72 °FScattered clouds.10 mph57%29.95 "HgN/A
4:50 PM70 °FScattered clouds.9 mph64%29.95 "HgN/A
4:20 PM70 °FScattered clouds.9 mph64%29.95 "HgN/A
3:50 PM70 °FScattered clouds.13 mph64%29.95 "HgN/A
3:20 PM72 °FScattered clouds.15 mph61%29.95 "HgN/A
2:50 PM72 °FScattered clouds.14 mph61%29.95 "HgN/A
2:20 PM70 °FBroken clouds.14 mph64%29.95 "HgN/A
1:50 PM68 °FPartly sunny.12 mph73%29.98 "HgN/A
1:20 PM68 °FBroken clouds.12 mph73%29.98 "HgN/A
12:50 PM68 °FPartly sunny.10 mph78%29.98 "HgN/A
12:20 PM66 °FBroken clouds.12 mph83%29.98 "HgN/A
11:50 AM64 °FBroken clouds.12 mph94%29.95 "HgN/A
11:20 AM64 °FOvercast.9 mph94%29.95 "HgN/A
10:50 AM63 °FMore clouds than sun.9 mph94%29.95 "HgN/A
10:20 AM63 °FMore clouds than sun.9 mph94%29.95 "HgN/A
9:50 AM63 °FMostly cloudy.12 mph100%29.95 "HgN/A
9:20 AM63 °FCloudy.9 mph100%29.95 "HgN/A
8:50 AM63 °FDrizzle. Overcast.7 mph100%29.95 "HgN/A
8:20 AM61 °FDrizzle. Mostly cloudy.5 mph100%29.95 "HgN/A
7:50 AM61 °FDrizzle. Mostly cloudy.7 mph100%29.95 "HgN/A
7:20 AM61 °FClear.8 mph100%29.95 "Hg4 mi
6:50 AM61 °FClear.7 mph94%29.92 "Hg10 mi
Weather by CustomWeather, © 2014

See weather overviewHow to use our weather pages